Retour au catalogue

STARLINK-3604

ActifCommunicationsVLEO
NORAD 51815·PAYLOAD·🇺🇸 United States

Lancé Feb 25, 2022 depuis Vandenberg Space Force Base

Loading…

Prochains Passages (prochaines 24 heures)

TLE

FraisSource: CelesTrak SupGP

Époque: Sep 15, 2026, 01:21 UTC

1 51815C 22017AZ  26258.05673611 -.00015337  00000+0 -49329-3 0  2582
2 51815  53.1584 185.6861 0001372  82.5713 201.2862 15.31703135    13

Suivez STARLINK-3604 en temps réel avec AllMySat

Download on the App Store